Location: Newark
(13.6797°N, 8.5297°E)
Time: 04:16:09
(UTC+00:00)

Courier 1B Rocket - Pass Details

Date: 21 January 2020
Orbit: 920 x 1202 km, 28.2° (Epoch: 16 February)

Event Time Altitude Azimuth Distance (km) Brightness Sun altitude
Rises 09:09:45 0° 228° (SW) 4,032 8.2 40.6°
Reaches altitude 10° 09:12:45 10° 222° (SW) 3,039 7.7 41.1°
Maximum altitude 09:19:54 47° 151° (SSE) 1,410 8.1 42.4°
Drops below altitude 10° 09:26:34 10° 79° (ENE) 2,845 7.9 43.5°
Sets 09:29:17 0° 73° (ENE) 3,755 8.3 44.0°
